Regional Weather Roundup
Issued by NWS

Home | Current Version | Previous Version | Graphics & Text | Print | Product List | Glossary On
Versions: 1 2 3 4 5 6 7 8 9 10 11 12 13 14 15 16 17 18 19 20 21 22 23 24 25 26 27 28 29 30 31 32 33 34 35 36 37 38 39 40 41 42 43 44 45 46 47 48 49 50
629
ASUS45 KCYS 221610
RWRWY

WYOMING REGIONAL WEATHER ROUNDUP
NATIONAL WEATHER SERVICE CHEYENNE WY
900 AM MST THU FEB 22 2018

NOTE:  "FAIR" INDICATES FEW OR NO CLOUDS BELOW 12,000 FEET
WITH NO SIGNIFICANT WEATHER AND/OR OBSTRUCTIONS TO VISIBILITY.

WYZ001-221700-
YELLOWSTONE NATIONAL PARK

CITY           SKY/WX    TMP DP  RH WIND       PRES   REMARKS
LK YELLOWSTONE   N/A     -4  -8  83 CALM      29.90S
W YELLOWSTONE  NOT AVBL

$$
WYZ002>013-054>058-071-098>099-221700-
NORTHERN WYOMING

CITY           SKY/WX    TMP DP  RH WIND       PRES   REMARKS
JACKSON        FAIR       1  -8  66 CALM      29.98S
CODY           FAIR      17   0  47 VRB7      29.99F WCI   8
GREYBULL       FAIR     -13 -16  86 MISG      30.11S
WORLAND        FAIR     -12 -14  90 CALM      30.07S
SHERIDAN       FAIR       0  -7  72 CALM      30.06S
BUFFALO        FAIR      18  -2  41 W8        30.01S WCI   8
GILLETTE       FAIR       4  -7  60 CALM      30.04S
HULETT         PTSUNNY   12   3  67 CALM      30.06F
NEWCASTLE      FAIR      12   3  67 N6        30.07F WCI   3

$$
WYZ014>020-022>026-101>103-221700-
CENTRAL WYOMING

CITY           SKY/WX    TMP DP  RH WIND       PRES   REMARKS
BIG PINEY      FAIR      -2  -5  87 CALM      29.96S
PINEDALE       PTSUNNY    3  -2  78 CALM      29.95F
DUBOIS           N/A    N/A N/A N/A MISG        N/A
LANDER         FAIR       1  -3  83 CALM      30.01R
RIVERTON       FAIR      -3  -7  82 SE3       30.02S
CASPER         FAIR      -3  -9  75 CALM      30.01R
DOUGLAS        CLOUDY     9   3  77 NW3       30.04S

$$
WYZ021-027>030-104>119-221700-
SOUTHERN WYOMING

CITY           SKY/WX    TMP DP  RH WIND       PRES   REMARKS
EVANSTON       FAIR       3  -4  72 E12       29.90R WCI -13
FORT BRIDGER   FOG       -4  -8  84 CALM      29.97S VSB 1/4
ROCK SPRINGS   FAIR       2  -3  80 SW5       29.97R WCI  -8
DIXON          FLURRIES   8   3  78 CALM      30.00R
RAWLINS        PTSUNNY    4   0  83 CALM      29.96R
SARATOGA       PTSUNNY    3   1  92 CALM      29.95S FOG
LARAMIE        FAIR       5   3  91 CALM      29.90F
CHEYENNE       PTSUNNY   14   8  77 W6        29.94F WCI   5
TORRINGTON     CLOUDY    14  11  87 CALM      30.08R
PINE BLUFFS    CLOUDY    10   9  92 CALM      30.02F

$$




USA.gov is the U.S. government's official web portal to all federal, state and local government web resources and services.